Tweed New Haven Airport
KHVN : now visible

Airfield :











YOU CAN JOIN US ON...

 
LOGIN :

Register | Disclaimer

   EN    FR    IT 

 









Legend :    VFR   Marginal VFR   IFR   Intensive IFR   Very Intensive IFR
Visi :
Ceiling :
>= 8 km
>= 3000ft
5 to 8 km
1000 to 3000 ft
1500m to 5 km
500 to 1000 ft
800 to 1500m
200 to 500 ft
< 800m
< 200 ft
Symbols :   Thunderstorms  Fog  Heavy snow  Heavy precipitations  Wind > 20 kt






- Airport Elevation : 12 ft
- IATA code : HVN


KHVN - Tweed New Haven

CURRENT METAR :
  • 281005Z 02005KT 6SM -RA BR BKN021 OVC037 10/08 A3010 RMK AO2 P0000 T01000078

EXPIRED METARs :
  • 280953Z 02004KT 7SM -RA FEW014 OVC037 10/07 A3010 RMK AO2 RAB03 SLP193 P0002 T01000072
  • 280942Z AUTO 01004KT 6SM -RA SCT016 OVC033 10/07 A3011 RMK AO2 RAB03 P0002 T01000072
  • 280918Z AUTO 01004KT 5SM -RA SCT018 BKN023 OVC040 11/07 A3012 RMK AO2 RAB03 P0001 T01060067
  • 280853Z AUTO 04003KT 10SM OVC037 11/06 A3012 RMK AO2 SLP199 T01110061 55000
  • 280753Z AUTO 02004KT 10SM SCT030 OVC042 12/06 A3011 RMK AO2 SLP196 T01170056

TAF N/A
KZBW FIR / North America



MET'MAP, your aeronautical weather chart ! - Copyright ORBIFLY December 2007 - Disclaimer

ORBIFLY MET'MAP TEAM :

Programming & Development : Alexandra Zaïnal
Concept & original design : Baudouin d'Aumeries
Assistance for programming : Marc-Olivier Méhu
Technical & hardware support : Manuel Goepfert

Contact : metmap@orbifly.com




SOURCES & CREDITS :

   NOAA       Earth
Advisory